Tracking 19246 objects as of 21-Sep-2018
HD Live streaming from Space Station
objects crossing your sky now

FENGYUN 1C DEB

Track FENGYUN 1C DEB now!
10-day predictions


NORAD ID: 35165
Int'l Code: 1999-025DMV
Perigee: 826.9 km
Apogee: 870.5 km
Inclination: 99.0 °
Period: 101.8 minutes
Semi major axis: 7219 km
RCS: 0.0024 m2 (small)
Launch date: May 10, 1999
Source: People's Republic of China (PRC)
Launch site: Taiyaun Space Center, China (TSC)

Note: This is SATELLITE DEBRIS
aabbcc
Your satellite tracking list
Your tracking list is empty




NASA's NSSDC Master Catalog

Two Line Element Set (TLE):
1 35165U 99025DMV 18261.00680695  .00000605  00000-0  33334-3 0  9997
2 35165  99.0406 286.4821 0030160  69.8637 290.5776 14.15217271522916
Source of the keplerian elements: AFSPC